Location: Pacheco
(37.9835°N, 122.0752°W)
Time: 22:02:26
(UTC+00:00)

ARGOS - Pass Details

Date: 13 April 2024
Orbit: 818 x 835 km, 98.4° (Epoch: 20 May)

Event Time Altitude Azimuth Distance (km) Brightness Sun altitude
Rises 12:44:13 0° 20° (NNE) 3,367 7.0 -10.4°
Reaches altitude 10° 12:46:41 10° 26° (NNE) 2,427 6.3 -9.9°
Maximum altitude 12:51:49 45° 99° (E) 1,111 4.4 -9.0°
Drops below altitude 10° 12:56:54 10° 171° (S) 2,405 5.5 -8.0°
Sets 12:59:19 0° 178° (S) 3,332 6.1 -7.6°
